Regional Weather Roundup
Issued by NWS

Home | Current Version | Previous Version | Text Only | Print | Product List | Glossary Off
Versions: 1 2 3 4 5 6 7 8 9 10 11 12 13 14 15 16 17 18 19 20 21 22 23 24 25 26 27 28 29 30 31 32 33 34 35 36 37 38 39 40 41 42 43 44 45 46 47 48 49 50

000
ASUS43 KMKX 161600
RWRWI

WISCONSIN REGIONAL WEATHER ROUNDUP
NATIONAL WEATHER SERVICE MILWAUKEE/SULLIVAN WI
1000 AM CST MON JAN 16 2017

NOTE: "FAIR" INDICATES FEW OR NO CLOUDS BELOW 12,000 FEET WITH NO
SIGNIFICANT WEATHER AND/OR OBSTRUCTIONS TO VISIBILITY.

WIZ001-002-006>008-014>016-023>028-161700-
NORTHWEST WISCONSIN

CITY           SKY/WX    TMP DP  RH WIND       PRES   REMARKS
SUPERIOR ARPT  MOSUNNY   17  15  93 CALM      30.17S FOG
ASHLAND        MOSUNNY   23  16  74 SW10      30.17F WCI  12
HAYWARD        CLOUDY    15  12  88 CALM      30.18R
SIREN          CLOUDY    15  12  88 CALM      30.17S
CUMBERLAND     CLOUDY     9   3  78 CALM      30.17S FOG
RICE LAKE      CLOUDY     3  -1  85 CALM      30.20F
CHETEK         CLOUDY     4   0  85 MISG      30.19F
LADYSMITH      CLOUDY     8   5  89 E3        30.20F
EAU CLAIRE     NOT AVBL
MENOMONIE      CLOUDY     8   5  89 N3        30.20S FOG
NEW RICHMOND   CLOUDY    14  11  87 E3        30.17S
OSCEOLA        CLOUDY    12  10  93 SE6       30.20F WCI   3
$$

WIZ003>005-009-010-017-018-161700-
NORTH CENTRAL WISCONSIN

CITY           SKY/WX    TMP DP  RH WIND       PRES   REMARKS
MANITOWISH WTR CLOUDY    13  13  96 CALM      30.15F
ARBOR VITAE      N/A      9   6  87 CALM      30.16S FOG
WOODRUFF         N/A      9   6  87 CALM      30.16S FOG
RHINELANDER    CLOUDY    11  10  96 CALM      30.18S FOG
EAGLE RIVER    CLOUDY     7   3  84 CALM      30.17S
LAND O LAKES   CLOUDY    17  15  91 CALM      30.17F
PHILLIPS       CLOUDY   N/A N/A N/A CALM      30.17R
TOMAHAWK       CLOUDY     5   1  84 CALM      30.19S
MEDFORD        CLOUDY    11   7  83 NE3       30.17F
MERRILL        CLOUDY     6   1  79 CALM        N/A
$$

WIZ029-030-035-036-043>047-161700-
CENTRAL WISCONSIN

CITY           SKY/WX    TMP DP  RH WIND       PRES   REMARKS
WAUSAU         CLOUDY     9   5  84 CALM      30.21R FOG
MOSINEE        NOT AVBL
MARSHFIELD     CLOUDY    14  10  84 NE6       30.19R FOG     WCI   5
STEVENS POINT  CLOUDY     9   6  87 CALM      30.22S FOG
WAUPACA        CLOUDY    20  14  75 CALM      30.24S
WAUTOMA        CLOUDY    26  21  81 CALM      30.23F
WISC RAPIDS    CLOUDY    20  17  88 NE3       30.22S
CAMP DOUGLAS   NOT AVBL
$$

WIZ011>013-019>022-031-037>040-048>050-161700-
NORTHEAST WISCONSIN

CITY           SKY/WX    TMP DP  RH WIND       PRES   REMARKS
ANTIGO         CLOUDY     8   6  91 CALM      30.19F
SHAWANO        MOSUNNY   17  11  78 CALM      30.24S
OCONTO         CLOUDY    17  11  79 CALM      30.26R
STURGEON BAY   CLOUDY    27  19  72 S3        30.27R
GREEN BAY      CLOUDY    25  19  78 CALM      30.25S
MANITOWOC      NOT AVBL
APPLETON       PTSUNNY   21  16  79 CALM      30.22F
CLINTONVILLE   CLOUDY    14   9  79 CALM      30.25R
OSHKOSH        CLOUDY    27  21  78 CALM      30.23F HAZE
$$

WIZ032>034-041-042-053>061-161700-
SOUTHWEST WISCONSIN

CITY           SKY/WX    TMP DP  RH WIND       PRES   REMARKS
LA CROSSE      MIX PCPN N/A N/A N/A NW3       30.19F
SPARTA         MIX PCPN  24  21  89 CALM      30.20S
VIROQUA        CLOUDY    28  27  93 SE8       30.15F WCI  20
BOSCOBEL       MIX PCPN  31  28  89 NE3       30.19F FOG
PRAIRIE DU CHI MIX PCPN  31  28  89 E6        30.17F WCI  25
PLATTEVILLE    PTSUNNY   32  32 100 E9        30.17F WCI  24
$$

WIZ056-057-062-063-064-067-068-161700-
SOUTH CENTRAL WISCONSIN

CITY           SKY/WX    TMP DP  RH WIND       PRES   REMARKS
REEDSBURG      MIX PCPN  27  25  90 CALM      30.20F
BARABOO/DELLS  MIX PCPN  26  22  85 E3        30.20S
LONE ROCK      CLOUDY    31  27  85 E7        30.20F FOG     WCI  24
MINERAL POINT  LGT RAIN  32  32 100 SE8       30.17S WCI  25
MADISON        FRZ RAIN  30  27  88 E6        30.21S FOG     WCI  24
MIDDLETON      CLOUDY    31  30  96 SE6       30.21S WCI  26
WATERTOWN      MIX PCPN  30  30 100 E5        30.22F WCI  25
MONROE         MIX PCPN  32  30  93 E7        30.19R WCI  26
JANESVILLE     FRZ DRZL  34  32  93 E7        30.21S WCI  28
$$

WIZ051-052-058>065-066-070>072-161700-
SOUTHEAST WISCONSIN

CITY           SKY/WX    TMP DP  RH WIND       PRES   REMARKS
MILWAUKEE      FRZ RAIN  33  28  81 SE5       30.25S FOG     WCI  29
WAUKESHA       CLOUDY    28  28 100 E6        30.25S WCI  22
MILWAUKEE/TIMM LGT RAIN  30  27  86 CALM      30.26S
RACINE         FRZ RAIN  32  29  88 SE5       30.27S FOG     WCI  27
KENOSHA        CLOUDY    32  29  88 SE7       30.24F FOG     WCI  26
FOND DU LAC    CLOUDY    29  18  63 CALM      30.23F
SHEBOYGAN      CLOUDY    29  19  66 CALM      30.25F
WEST BEND      MIX PCPN  30  27  86 CALM      30.23F
JUNEAU         MIX PCPN  29  24  81 E5        30.23F WCI  24
$$

LSZ147-162-161700-
LAKE SUPERIOR

STATION/POSITION TIME  TEMP    WIND        PRES    WAVE
                       AIR SEA DIR/SP/G            HT/PER
                 (UTC) (F)     (DEG/KT/KT) (MB)    (FT/S)
DEVILS ISLAND    1500   28     240/ 17/ 20 1022.1R
PORT WING        1530   23     220/  7/  9 1021.7S
SAXON HARBOR     1540   26     190/  6/ 11 1021.3F
$$

LMZ867-665-643>646-161700-
LAKE MICHIGAN

STATION/POSITION TIME  TEMP    WIND        PRES    WAVE
                       AIR SEA DIR/SP/G            HT/PER
                 (UTC) (F)     (DEG/KT/KT) (MB)    (FT/S)
NORTHPORT PIER   1540   27      CALM  /  1 1024.7R
SISTER BAY       1520   31     320/  3/  4   N/A
KEWAUNEE LAKESHO 1530   25     190/  3/  4 1024.0F
SHEBOYGAN LAKESH 1500   30     190/  5/  5 1025.6F
PORT WASHINGTON  1540   32      CALM  /  1 1025.4F
MILWAUKEE LAKESH 1530   31     110/  3/  4   N/A
KENOSHA   LAKESH 1500   31     160/  3/  3 1024.4
$$

TC  - TEMPERATURE IN CELSIUS
VSB - VISIBILITY IN STATUTE MILES
WCI - WIND CHILL INDEX
HX  - HEAT INDEX





USA.gov is the U.S. government's official web portal to all federal, state and local government web resources and services.